GW4488 Weather Reports


time (UTC)temp
C
wind
direction
speed
KPH
gust
KPH
rain 1hr
cm
rain 24hr
cm
rain mn
cm
humidity
%
barometer
mb
20260507040711 6 230 4.8 6.4 0.00 0.00 0.00 99 1041.3
20260507040207 6 232 4.8 6.4 0.00 0.00 0.00 99 1041.2
20260507035703 6 225 4.8 6.4 0.00 1.32 1.32 99 1041.1
20260507035159 6 232 4.8 6.4 0.00 1.32 1.32 99 1041.1
20260507034656 6 243 4.8 6.4 0.00 1.32 1.32 99 1040.5
20260507034154 6 223 6.4 6.4 0.00 1.32 1.32 99 1040.8
20260507033652 6 234 6.4 8.0 0.00 1.32 1.32 99 1040.4
20260507033149 6 237 4.8 6.4 0.00 1.32 1.32 99 1040.5
20260507032647 6 233 4.8 6.4 0.00 1.32 1.32 99 1040.9
20260507032142 6 233 4.8 8.0 0.00 1.32 1.32 99 1040.8
20260507031639 6 218 6.4 6.4 0.00 1.32 1.32 99 1040.9
20260507031136 6 236 4.8 6.4 0.00 1.32 1.32 99 1041.1
20260507030633 6 221 4.8 6.4 0.00 1.32 1.32 99 1041.2
20260507030131 6 227 4.8 6.4 0.00 1.32 1.32 99 1041.2
20260507025627 6 222 4.8 4.8 0.05 1.32 1.32 99 1041.3
20260507025124 6 235 4.8 6.4 0.05 1.32 1.32 99 1041.2
20260507024622 6 237 4.8 4.8 0.00 1.30 1.30 99 1041.0
20260507024119 6 251 3.2 4.8 0.05 1.30 1.30 99 1041.1
20260507023615 6 257 3.2 6.4 0.05 1.30 1.30 99 1041.1
20260507023112 6 265 3.2 4.8 0.00 1.30 1.30 99 1041.2
20260507022609 6 275 3.2 6.4 0.00 1.30 1.30 99 1041.1
20260507022104 6 239 4.8 6.4 0.00 1.30 1.30 99 1041.1
20260507021601 6 270 3.2 6.4 0.00 1.30 1.30 99 1041.3
20260507021057 6 235 4.8 6.4 0.00 1.30 1.30 99 1041.3
20260507020555 6 244 4.8 6.4 0.00 1.30 1.30 99 1041.4
20260507020051 6 240 4.8 4.8 0.00 1.30 1.30 99 1041.4
20260507015550 6 262 3.2 6.4 0.00 1.30 1.30 99 1041.6
20260507015047 6 216 6.4 6.4 0.00 1.30 1.30 99 1041.5
20260507014543 6 248 4.8 6.4 0.00 1.30 1.30 99 1041.4
20260507014039 6 243 4.8 4.8 0.00 1.30 1.30 99 1041.5
20260507013536 6 248 4.8 4.8 0.00 1.30 1.30 99 1041.4
20260507013033 6 244 4.8 6.4 0.00 1.30 1.30 99 1041.7
20260507012530 6 257 3.2 4.8 0.00 1.30 1.30 99 1041.6
20260507012026 6 259 3.2 6.4 0.00 1.30 1.30 99 1041.3
20260507011524 6 256 4.8 6.4 0.00 1.30 1.30 99 1041.4
20260507011020 6 250 3.2 6.4 0.00 1.30 1.30 99 1041.4
20260507010514 6 261 3.2 6.4 0.00 1.30 1.30 99 1041.1
20260507010011 6 243 4.8 6.4 0.00 1.30 1.30 99 1041.4
20260507005509 6 261 3.2 4.8 0.00 1.30 1.30 99 1041.3
20260507005005 6 236 3.2 6.4 0.00 1.30 1.30 99 1041.1
20260507004502 6 262 3.2 6.4 0.00 1.30 1.30 99 1041.1
20260507004000 6 266 4.8 8.0 0.00 1.30 1.30 99 1041.2
20260507003454 6 234 4.8 6.4 0.00 1.30 1.30 99 1041.0
20260507002949 6 263 4.8 4.8 0.00 1.30 1.30 99 1040.8
20260507002441 6 244 4.8 6.4 0.00 1.30 1.30 99 1040.9
20260507001937 6 252 3.2 4.8 0.00 1.30 1.30 99 1040.6
20260507001434 7 249 4.8 4.8 0.00 1.30 1.30 99 1040.6
20260507000932 7 248 4.8 6.4 0.00 1.30 1.30 99 1040.9
20260507000427 7 259 4.8 6.4 0.00 1.30 1.30 99 1041.0
20260506235923 7 262 3.2 6.4 0.00 1.30 1.30 99 1040.7
20260506235421 7 229 4.8 6.4 0.00 1.30 1.30 99 1040.8
20260506234915 7 244 4.8 6.4 0.00 1.30 1.30 99 1040.6
20260506234414 7 223 6.4 6.4 0.00 1.30 1.30 99 1040.9
20260506233911 7 243 3.2 6.4 0.00 1.30 1.30 99 1040.7
20260506233407 7 227 4.8 6.4 0.00 1.30 1.30 99 1040.4
20260506232904 7 246 4.8 6.4 0.00 1.30 1.30 99 1040.5
20260506232400 7 254 3.2 8.0 0.00 1.30 1.30 99 1040.3
20260506231856 7 229 4.8 6.4 0.00 1.30 1.30 99 1040.2
20260506231354 7 227 4.8 6.4 0.00 1.30 1.30 99 1040.3
20260506230851 7 244 4.8 6.4 0.00 1.30 1.30 99 1040.4
20260506230348 7 255 4.8 8.0 0.00 1.30 1.30 99 1040.3
20260506225844 7 210 6.4 6.4 0.00 1.30 1.30 99 1040.3
20260506225342 7 234 4.8 6.4 0.00 1.30 1.30 99 1040.1
20260506224838 7 235 4.8 8.0 0.00 1.30 1.30 99 1040.3
20260506224336 7 236 4.8 8.0 0.00 1.30 1.30 99 1040.0
20260506223832 7 248 4.8 8.0 0.00 1.30 1.30 99 1040.2
20260506223327 7 229 4.8 4.8 0.00 1.30 1.30 99 1040.0
20260506222825 7 235 4.8 6.4 0.00 1.30 1.30 99 1040.0
20260506222320 7 266 4.8 9.7 0.00 1.30 1.30 99 1040.1
20260506221818 7 218 4.8 6.4 0.00 1.30 1.30 99 1040.0
20260506221316 7 236 8.0 8.0 0.00 1.30 1.30 99 1039.9
20260506220813 7 210 4.8 6.4 0.00 1.30 1.30 99 1040.1
20260506220308 7 250 4.8 8.0 0.00 1.30 1.30 99 1039.9
20260506215805 7 221 6.4 11.3 0.00 1.30 1.30 99 1040.1
20260506215301 7 226 6.4 6.4 0.00 1.30 1.30 99 1040.3
20260506214756 7 214 6.4 6.4 0.00 1.30 1.30 99 1040.1
20260506214254 7 223 6.4 8.0 0.00 1.30 1.30 99 1039.9
20260506213752 7 236 4.8 8.0 0.00 1.30 1.30 99 1039.9
20260506213248 7 247 4.8 8.0 0.00 1.30 1.30 99 1040.0
20260506212746 7 247 4.8 6.4 0.00 1.30 1.30 99 1039.8
20260506212242 7 235 8.0 9.7 0.00 1.30 1.30 99 1040.0
20260506211737 7 220 4.8 9.7 0.00 1.30 1.30 99 1039.8
20260506211233 7 229 4.8 6.4 0.00 1.30 1.30 99 1039.8
20260506210730 7 250 3.2 6.4 0.00 1.30 1.30 99 1039.8
20260506210222 7 249 9.7 9.7 0.00 1.30 1.30 99 1039.9
20260506205719 7 251 4.8 8.0 0.00 1.30 1.30 99 1039.9
20260506205214 7 238 6.4 8.0 0.00 1.30 1.30 99 1039.6
20260506204712 7 246 4.8 8.0 0.00 1.30 1.30 99 1039.4
20260506204209 7 242 8.0 8.0 0.00 1.30 1.30 99 1039.2
20260506203707 7 210 4.8 11.3 0.00 1.30 1.30 99 1039.2
20260506203204 7 233 8.0 9.7 0.00 1.30 1.30 99 1039.1
20260506202701 7 186 1.6 6.4 0.00 1.30 1.30 99 1039.3
20260506202157 7 229 4.8 6.4 0.00 1.30 1.30 99 1038.9
20260506201654 7 231 4.8 8.0 0.00 1.30 1.30 99 1039.0
20260506201150 7 229 4.8 8.0 0.00 1.30 1.30 99 1038.6
20260506200648 7 245 6.4 9.7 0.00 1.30 1.30 99 1038.7
20260506200144 7 206 4.8 9.7 0.00 1.30 1.30 99 1038.7
20260506195641 7 273 4.8 14.5 0.00 1.30 1.30 99 1038.9
20260506195137 7 223 6.4 11.3 0.00 1.30 1.30 99 1038.7
20260506194635 7 244 4.8 9.7 0.00 1.30 1.30 99 1038.6
20260506194131 8 234 6.4 8.0 0.00 1.30 1.30 99 1038.5
20260506193629 8 261 4.8 14.5 0.00 1.30 1.30 99 1038.5
20260506193126 8 255 6.4 9.7 0.00 1.30 1.30 99 1038.6
20260506192623 8 209 4.8 8.0 0.00 1.30 1.30 99 1038.2
20260506192118 8 256 4.8 9.7 0.00 1.30 1.30 99 1038.6
20260506191615 8 252 4.8 8.0 0.05 1.30 1.30 99 1038.6
20260506191111 8 258 9.7 9.7 0.00 1.27 1.27 99 1038.4
20260506190609 8 233 4.8 8.0 0.00 1.27 1.27 99 1038.3
20260506190106 8 219 4.8 9.7 0.00 1.27 1.27 99 1038.4
20260506185603 8 264 4.8 9.7 0.00 1.27 1.27 99 1038.5
20260506185059 8 255 6.4 12.9 0.00 1.27 1.27 99 1038.2
20260506184556 8 237 4.8 11.3 0.00 1.27 1.27 99 1038.3
20260506184054 8 210 0.0 6.4 0.05 1.27 1.27 99 1038.4
20260506183550 8 251 4.8 6.4 0.05 1.27 1.27 99 1038.4
20260506183046 8 241 6.4 6.4 0.00 1.27 1.27 99 1038.2
20260506182544 8 220 4.8 6.4 0.00 1.27 1.27 99 1038.0
20260506182041 8 233 3.2 9.7 0.00 1.27 1.27 99 1038.0
20260506181539 8 237 4.8 11.3 0.05 1.27 1.27 99 1038.0
20260506181035 8 180 3.2 9.7 0.05 1.27 1.27 99 1037.8
20260506180532 8 254 4.8 8.0 0.05 1.27 1.27 99 1037.7
20260506180029 8 241 4.8 8.0 0.05 1.27 1.27 99 1037.6
20260506175525 8 260 4.8 12.9 0.05 1.24 1.24 99 1037.8
20260506175022 8 216 3.2 8.0 0.05 1.24 1.24 99 1037.6
20260506174520 8 238 4.8 11.3 0.00 1.24 1.24 99 1037.6
20260506174016 8 239 4.8 12.9 0.00 1.24 1.24 99 1037.7
20260506173514 8 248 4.8 6.4 0.00 1.24 1.24 99 1037.4
20260506173011 8 240 4.8 6.4 0.00 1.24 1.24 99 1037.7
20260506172508 8 237 4.8 6.4 0.00 1.24 1.24 99 1037.6
20260506172004 8 236 8.0 9.7 0.00 1.24 1.24 99 1037.4
20260506171502 8 228 6.4 9.7 0.05 1.24 1.24 99 1037.4
20260506170959 8 246 4.8 8.0 0.05 1.24 1.24 99 1037.4
20260506170456 8 245 6.4 9.7 0.00 1.22 1.22 99 1037.3
20260506165954 8 202 3.2 6.4 0.00 1.22 1.22 99 1037.5
20260506165452 8 231 4.8 8.0 0.00 1.22 1.22 99 1037.6
20260506164942 8 238 8.0 8.0 0.00 1.22 1.22 99 1037.4
20260506164439 8 246 1.6 8.0 0.00 1.22 1.22 99 1037.7
20260506163937 7 243 4.8 8.0 0.05 1.22 1.22 99 1037.6
20260506163431 7 260 3.2 11.3 0.05 1.22 1.22 99 1037.3
20260506162926 7 230 3.2 6.4 0.00 1.22 1.22 99 1037.2
20260506162424 8 239 6.4 8.0 0.00 1.22 1.22 99 1037.4
20260506161916 8 219 4.8 6.4 0.00 1.22 1.22 99 1037.5
20260506161414 7 245 3.2 8.0 0.00 1.22 1.22 99 1037.4
20260506160905 7 225 6.4 6.4 0.00 1.22 1.22 99 1037.6
20260506160402 7 239 4.8 8.0 0.00 1.22 1.22 99 1037.2
20260506155900 7 232 4.8 9.7 0.00 1.22 1.22 99 1037.1
20260506155356 7 232 6.4 8.0 0.00 1.22 1.22 99 1037.2
20260506153514 7 245 3.2 8.0 0.00 1.22 1.22 99 1037.2
20260506153011 7 236 3.2 8.0 0.05 1.22 1.22 99 1037.3
20260506152508 7 258 6.4 8.0 0.00 1.19 1.19 99 1037.4
20260506152006 7 240 4.8 8.0 0.00 1.19 1.19 99 1037.3
20260506151503 7 226 4.8 6.4 0.00 1.19 1.19 99 1037.2
20260506151000 7 246 8.0 8.0 0.05 1.19 1.19 99 1037.2
20260506150456 6 243 4.8 12.9 0.00 1.19 1.19 99 1037.3
20260506145954 7 231 8.0 11.3 0.00 1.19 1.19 99 1037.4
20260506145450 7 233 4.8 8.0 0.00 1.19 1.19 99 1037.3
20260506144948 7 252 6.4 12.9 0.05 1.19 1.19 99 1037.2
20260506144444 7 228 6.4 6.4 0.05 1.19 1.19 99 1037.3
20260506143942 6 272 8.0 11.3 0.13 1.19 1.19 99 1037.1
20260506143439 7 240 4.8 8.0 0.05 1.17 1.17 99 1037.0
20260506142938 7 225 6.4 8.0 0.05 1.17 1.17 99 1036.8
20260506142435 7 240 4.8 8.0 0.13 1.17 1.17 99 1036.8
20260506141933 7 237 4.8 6.4 0.13 1.14 1.14 99 1036.7
20260506141430 7 213 4.8 6.4 0.05 1.14 1.14 99 1036.9
20260506140929 7 229 4.8 6.4 0.00 1.14 1.14 99 1036.7
20260506140425 7 229 4.8 8.0 0.05 1.14 1.14 99 1036.9
20260506135922 7 255 3.2 6.4 0.05 1.14 1.14 99 1037.0
20260506135420 7 229 6.4 8.0 0.05 1.12 1.12 99 1036.9
20260506134916 7 226 6.4 6.4 0.30 1.12 1.12 99 1037.1
20260506134412 7 239 6.4 8.0 0.48 1.12 1.12 99 1037.2
20260506133909 7 222 4.8 9.7 0.18 1.04 1.04 99 1037.1
20260506133406 7 226 4.8 11.3 0.18 1.04 1.04 99 1037.2
20260506132902 7 249 4.8 9.7 0.18 1.02 1.02 99 1037.1
20260506132359 7 242 6.4 11.3 0.23 0.99 0.99 99 1036.8
20260506131857 7 250 6.4 8.0 0.23 0.99 0.99 99 1036.8
20260506131353 7 250 4.8 6.4 0.23 0.97 0.97 99 1037.1
20260506130851 7 243 4.8 6.4 0.13 0.94 0.94 99 1037.2
20260506130347 7 254 6.4 11.3 0.18 0.91 0.91 99 1037.3
20260506125845 7 227 4.8 8.0 0.23 0.91 0.91 99 1037.2
20260506125343 7 233 8.0 8.0 0.30 0.89 0.89 99 1037.0
20260506124841 7 227 8.0 9.7 0.43 0.86 0.86 99 1037.1
20260506124338 8 252 3.2 8.0 0.53 0.84 0.84 99 1037.3
20260506123835 8 225 4.8 6.4 0.43 0.79 0.79 99 1036.9
20260506123334 8 251 3.2 8.0 0.18 0.74 0.74 99 1036.9
20260506122831 8 228 6.4 6.4 0.18 0.71 0.71 99 1036.7
20260506122327 8 251 6.4 6.4 0.18 0.71 0.71 99 1036.8
20260506121826 8 262 4.8 8.0 0.30 0.69 0.69 99 1036.7
20260506121322 8 233 4.8 6.4 0.23 0.66 0.66 99 1036.7
20260506120820 8 240 6.4 8.0 0.30 0.64 0.64 99 1036.6
20260506120317 8 253 4.8 6.4 0.30 0.61 0.61 99 1036.5
20260506115814 8 241 4.8 6.4 0.23 0.58 0.58 99 1036.7
20260506115313 8 235 4.8 8.0 0.18 0.56 0.56 99 1036.5
20260506114810 8 262 4.8 8.0 0.05 0.56 0.56 99 1036.5
20260506114308 8 260 4.8 6.4 0.05 0.53 0.53 99 1036.7
20260506113806 8 237 4.8 6.4 0.13 0.53 0.53 99 1036.6
20260506113303 8 249 4.8 6.4 0.18 0.53 0.53 99 1036.5
20260506112800 8 240 4.8 6.4 0.13 0.51 0.51 99 1036.4
20260506112257 8 231 4.8 8.0 0.18 0.51 0.51 99 1036.3
20260506111754 8 290 3.2 8.0 0.23 0.48 0.48 99 1036.2
20260506111252 8 246 4.8 6.4 0.23 0.46 0.46 99 1036.6
20260506110749 8 243 4.8 6.4 0.23 0.43 0.43 99 1036.6
20260506110247 8 227 4.8 6.4 0.30 0.43 0.43 99 1036.4
20260506105743 8 251 3.2 6.4 0.30 0.41 0.41 99 1036.7
20260506105240 8 236 4.8 6.4 0.23 0.36 0.36 99 1036.8
20260506104738 8 248 4.8 4.8 0.18 0.33 0.33 99 1036.7
20260506104235 8 247 4.8 4.8 0.18 0.33 0.33 99 1036.6
20260506103732 8 263 4.8 4.8 0.18 0.30 0.30 99 1036.6
20260506103230 8 265 3.2 4.8 0.05 0.28 0.28 99 1036.6
20260506102727 8 266 3.2 4.8 0.13 0.28 0.28 99 1036.7
20260506102225 8 255 3.2 4.8 0.18 0.28 0.28 99 1036.8
20260506101722 8 270 3.2 4.8 0.18 0.25 0.25 99 1036.6
20260506101218 8 278 3.2 4.8 0.18 0.23 0.23 99 1036.7
20260506100716 8 270 3.2 4.8 0.18 0.23 0.23 99 1037.0
20260506100214 8 270 3.2 3.2 0.23 0.20 0.20 99 1036.8
20260506095712 8 286 3.2 3.2 0.18 0.18 0.18 99 1036.8
20260506095209 8 279 3.2 3.2 0.13 0.18 0.18 99 1037.2
20260506094706 8 294 1.6 3.2 0.18 0.15 0.15 99 1037.1
20260506094204 8 265 3.2 3.2 0.18 0.15 0.15 99 1037.0
20260506093703 8 257 3.2 3.2 0.13 0.13 0.13 99 1036.9
20260506093159 8 250 3.2 4.8 0.23 0.13 0.13 99 1036.9
20260506092657 8 270 3.2 4.8 0.18 0.10 0.10 99 1036.9
20260506092154 8 265 3.2 6.4 0.18 0.08 0.08 99 1037.0
20260506091652 8 246 4.8 8.0 0.13 0.05 0.05 99 1037.4
20260506091149 8 265 3.2 4.8 0.13 0.05 0.05 99 1037.4
20260506090647 8 253 4.8 4.8 0.05 0.05 0.05 99 1037.5
20260506090143 8 253 4.8 4.8 0.05 0.03 0.03 99 1037.7
20260506085640 8 270 3.2 3.2 0.13 0.03 0.03 99 1037.3
20260506085136 8 270 3.2 4.8 0.05 0.03 0.03 99 1037.1
20260506084633 8 261 4.8 4.8 0.00 0.00 0.00 99 1037.1
20260506084130 8 290 3.2 3.2 0.00 0.00 0.00 99 1037.0
20260506083627 8 275 3.2 4.8 0.00 0.00 0.00 99 1037.1
20260506083125 8 270 1.6 3.2 0.00 0.00 0.00 99 1037.1
20260506082621 8 270 3.2 3.2 0.00 0.00 0.00 99 1037.1
20260506082117 8 270 3.2 3.2 0.05 0.00 0.00 99 1037.0
20260506081615 8 275 3.2 3.2 0.05 0.00 0.00 99 1037.0
20260506081112 8 265 3.2 3.2 0.00 0.00 0.00 99 1037.1
20260506080610 8 276 1.6 3.2 0.00 0.00 0.00 99 1037.1
20260506080106 8 270 1.6 3.2 0.00 0.00 0.00 99 1037.3
20260506073050 8 283 3.2 3.2 0.00 0.00 0.00 99 1037.1
20260506072547 8 282 1.6 3.2 0.00 0.00 0.00 99 1037.5
20260506072045 8 250 3.2 3.2 0.00 0.00 0.00 99 1037.4
20260506071543 8 241 3.2 4.8 0.00 0.00 0.00 99 1037.4
20260506071040 8 270 1.6 3.2 0.00 0.00 0.00 99 1037.4
20260506070537 8 265 3.2 3.2 0.00 0.00 0.00 99 1037.7
20260506062514 8 264 3.2 3.2 0.00 0.00 0.00 99 1038.2
20260506062011 8 264 1.6 3.2 0.00 0.00 0.00 99 1038.3
20260506061506 8 262 3.2 3.2 0.00 0.00 0.00 99 1038.2
20260506061005 7 270 1.6 3.2 0.00 0.00 0.00 99 1038.5
20260506060503 7 270 3.2 3.2 0.00 0.00 0.00 99 1038.7
20260506050931 7 280 3.2 4.8 0.00 0.00 0.00 99 1039.3
20260506050429 7 270 3.2 3.2 0.00 0.00 0.00 99 1039.1
20260506044920 7 283 1.6 3.2 0.00 0.00 0.00 99 1039.2
20260506044418 7 255 3.2 4.8 0.00 0.00 0.00 99 1039.0
20260506043915 7 255 1.6 3.2 0.00 0.00 0.00 99 1039.4
20260506043412 8 270 3.2 4.8 0.00 0.00 0.00 99 1039.4
20260506042910 8 270 1.6 3.2 0.00 0.00 0.00 99 1039.5
20260506042409 8 248 3.2 3.2 0.00 0.00 0.00 99 1039.3
20260506041906 8 270 3.2 4.8 0.00 0.00 0.00 98 1039.3
20260506041404 8 276 1.6 3.2 0.00 0.00 0.00 97 1039.2